#timestamp,LO_Frequency,Hit,StdDev 
1557986415.4,286046999.8,N
1557986435.2,286047002.2,N
1557986455.0,286047002.8,N
1557986455.9,286047002.8,N
1557986475.8,286047002.6,N
1557986495.6,286047002.3,N
1557986515.4,286047002.3,N
1557986535.3,286047002.2,N
1557986555.1,286047002.4,N
1557986575.9,286047002.6,N
1557986595.7,286047000.4,N
1557986615.5,286047000.7,N
1557986635.4,286047001.1,N
1557986655.2,286047002.7,N
1557986675.0,286047000.2,N
1557986675.9,286047000.2,N
1557986695.8,286047002.3,N
1557986715.6,286047002.2,N
1557986735.5,286047002.5,N
1557986755.3,286047002.2,N
1557986775.1,286047002.7,N
1557986795.9,286047002.8,N
1557986815.7,286046999.7,N
1557986835.6,286047000.3,N
1557986855.4,286047000.0,N
1557986875.2,286046998.2,N
1557986895.1,286046999.9,N
1557986896.0,286046999.9,N
1557986915.8,286046999.9,N
1557986935.6,286047002.6,N
1557986955.5,286047002.4,N
1557986975.3,286047002.4,N
1557986995.2,286047000.5,N
1557987015.9,286047000.3,N
1557987035.7,286047002.4,N
1557987055.6,286047000.0,N
1557987075.4,286047000.5,N
1557987095.2,286047000.2,N
1557987115.1,286047000.1,N
1557987116.0,286047000.1,N
1557987135.8,286047000.4,N
1557987155.7,286046998.9,N
1557987175.5,286046998.3,N
1557987195.3,286046999.9,N
1557987215.2,286047001.1,N
1557987235.0,286046998.1,N
1557987235.9,286046998.1,N
1557987255.8,286047000.5,N
1557987275.8,286047000.1,N
1557987295.7,286047000.6,N
1557987315.5,286046999.9,N
1557987335.4,286047002.8,N
1557987355.2,286046999.8,N
1557987375.0,286047000.8,N
1557987375.9,286047000.8,N
1557987395.8,286047001.2,N
1557987415.6,286047001.2,N
1557987435.5,286047000.5,N
1557987455.3,286047001.0,N
1557987475.1,286047000.3,N
1557987495.9,286047001.1,N
1557987515.7,286046998.5,N
1557987535.5,286046998.8,N
1557987555.4,286046998.9,N
1557987575.2,286046999.3,N
1557987595.1,286046998.5,N
1557987596.0,286046998.5,N
1557987615.8,286046999.5,N
1557987635.6,286046999.5,N
1557987655.5,286046999.5,N
1557987675.3,286046998.3,N
1557987695.2,286046998.1,N
1557987715.9,286047001.2,N
1557987735.7,286046998.6,N
1557987755.6,286046999.8,N
1557987775.4,286047000.0,N
1557987795.2,286047002.8,N
1557987815.1,286047000.3,N
1557987816.0,286047000.3,N
1557987835.8,286046999.8,N
1557987855.7,286047000.0,N
1557987875.5,286047000.5,N
1557987895.3,286046998.5,N
1557987915.2,286047000.9,N
1557987935.0,286047000.3,N
1557987935.9,286047000.3,N
1557987955.8,286046998.7,N
1557987975.6,286046999.3,N
1557987995.4,286046997.2,N
1557988045.3,286046997.8,E
1557988055.2,286046996.7,N
1557988075.1,286046998.9,P
1557988076.0,286046998.9,N
1557988095.8,286046999.5,N
1557988115.6,286046996.9,N
1557988135.5,286046997.0,N
1557988155.3,286046996.7,N
1557988175.2,286046999.5,N
1557988195.9,286046996.6,N
1557988215.7,286046999.5,N
1557988235.6,286046999.4,N
1557988255.4,286046998.3,N
1557988275.2,286046996.8,N
1557988295.1,286046997.0,N
1557988296.0,286046997.0,N
1557988315.8,286046997.3,N
1557988335.7,286046996.6,N
1557988355.5,286046997.8,N
1557988375.3,286046995.6,Y
1557988395.2,286046999.1,P
1557988415.0,286046996.6,P
1557988415.9,286046996.6,P
1557988435.8,286046997.0,N
1557988455.6,286046995.1,Y
1557988475.4,286046998.6,P
1557988495.3,286046998.2,P
1557988515.1,286047000.6,N
1557988535.8,286047000.1,N
1557988555.7,286047000.7,N
1557988575.5,286047000.7,N
1557988595.4,286047000.6,N
1557988615.2,286047001.2,N
1557988635.0,286046998.7,N
1557988635.9,286046998.7,N
1557988655.8,286046998.4,N
1557988675.6,286047001.0,N
1557988695.5,286047000.7,N
1557988715.3,286046998.9,N
1557988735.1,286046998.8,N
1557988755.9,286046999.6,N
1557988775.7,286046999.0,N
1557988795.5,286046999.2,N
1557988815.4,286046998.5,N
1557988835.2,286046996.6,Y
1557988855.1,286046998.8,P
1557988856.0,286046998.8,P
1557988875.8,286047000.7,N
1557988895.6,286047000.6,N
1557988915.5,286047000.3,N
1557988935.3,286047000.1,N
1557988955.1,286047000.9,N
1557988975.9,286046998.2,N
1557988995.7,286047001.1,N
1557989015.6,286047002.1,N
1557989035.4,286047001.7,N
1557989055.2,286047005.5,Y
1557989075.1,286047004.7,P
1557989076.0,286047004.7,N
1557989095.8,286047007.6,P
1557989115.7,286047007.1,N
1557989135.5,286047007.8,N
1557989155.3,286047012.4,Y
1557989175.2,286047007.0,P
1557989195.0,286047004.8,P
1557989195.9,286047004.8,P
1557989215.8,286047005.4,Y
1557989235.6,286047000.6,P
1557989255.4,286046997.2,N
1557989275.3,286046995.5,N
1557989295.1,286046995.0,N
1557989315.8,286046997.7,N
1557989335.7,286046996.0,N
1557989355.5,286046991.7,N
1557989375.4,286046994.7,N
1557989395.2,286046993.7,N
1557989415.0,286046993.4,N
1557989415.9,286046993.4,N
1557989435.8,286046997.3,N
1557989455.6,286046998.4,N
1557989505.5,286046999.6,E
1557989515.4,286046998.0,N
1557989535.2,286046996.0,P
1557989555.1,286046993.7,P
1557989556.0,286046993.7,Y
1557989575.8,286046999.0,P
1557989595.6,286046996.7,N
1557989615.5,286046998.0,N
1557989635.3,286046995.2,Y
1557989655.2,286046997.0,P
1557989675.0,286046996.7,P
1557989675.9,286046996.7,P
1557989695.7,286046998.4,Y
1557989715.6,286047000.1,P
1557989735.4,286047002.7,N
1557989755.3,286047001.9,N
1557989775.1,286047002.1,N
1557989776.0,286047002.1,N
1557989795.8,286047001.9,N
1557989815.7,286047001.2,N
1557989835.5,286046998.6,N
1557989855.4,286047000.0,N
1557989875.2,286047000.4,N
1557989895.0,286047000.5,N
1557989895.9,286047000.5,N
1557989915.8,286047000.7,N
1557989935.6,286047002.4,N
1557989955.4,286047003.1,N
1557989975.3,286047007.1,Y
1557989995.1,286047004.5,P
